• In Netherlands
  • List of Countries
  • For 7 days
  • Water Temperature
  • Satellite Maps
  • Weather Map
  • Weather Widgets
  • user-avatar
    Login

    Hourly Weather Innsbruck

    Today, 23 October, Monday

    Time Temperature Precipitation Wind Pressure Humidity
    00:00 -6°C° 0.6 mm 3 mps 593 mmHg 93%
    01:00 -4°C° 0 mm 2 mps 592 mmHg 91%
    02:00 -4°C° 0.5 mm 2 mps 592 mmHg 91%
    03:00 -4°C° 0.5 mm 2 mps 592 mmHg 92%
    04:00 -6°C° 0.5 mm 3 mps 592 mmHg 92%
    05:00 -6°C° 0.6 mm 3 mps 593 mmHg 92%
    06:00 -6°C° 0.6 mm 3 mps 593 mmHg 92%
    07:00 -5°C° 0 mm 2 mps 593 mmHg 92%
    08:00 -5°C° 0.6 mm 3 mps 593 mmHg 89%
    09:00 -5°C° 0.6 mm 3 mps 593 mmHg 87%
    10:00 -4°C° 0.6 mm 3 mps 594 mmHg 84%
    11:00 -4°C° 0.7 mm 3 mps 594 mmHg 84%
    12:00 -2°C° 0.7 mm 3 mps 594 mmHg 83%
    13:00 -2°C° 0 mm 3 mps 594 mmHg 84%
    14:00 -2°C° 0.5 mm 3 mps 594 mmHg 85%
    15:00 -4°C° 0.5 mm 3 mps 595 mmHg 86%
    16:00 -4°C° 0.5 mm 3 mps 595 mmHg 87%
    17:00 -3°C° 0.7 mm 2 mps 595 mmHg 89%
    18:00 -4°C° 0.7 mm 2 mps 595 mmHg 90%
    19:00 -4°C° 0.7 mm 2 mps 595 mmHg 92%
    20:00 -4°C° 0.7 mm 2 mps 596 mmHg 92%
    21:00 -4°C° 0.7 mm 2 mps 596 mmHg 93%
    22:00 -4°C° 0.7 mm 2 mps 596 mmHg 93%
    23:00 -4°C° 0.5 mm 2 mps 597 mmHg 93%

    Tomorrow, 24 October, Tuesday

    Time Temperature Precipitation Wind Pressure Humidity
    00:00 -4°C° 0.5 mm 2 mps 597 mmHg 93%
    01:00 -4°C° 0.5 mm 2 mps 597 mmHg 93%
    02:00 -4°C° 0.3 mm 2 mps 597 mmHg 94%
    03:00 -4°C° 0.3 mm 2 mps 597 mmHg 94%
    04:00 -5°C° 0.3 mm 2 mps 597 mmHg 94%
    05:00 -5°C° 0.1 mm 2 mps 597 mmHg 94%
    06:00 -5°C° 0.1 mm 2 mps 597 mmHg 94%
    07:00 -5°C° 0.1 mm 2 mps 598 mmHg 94%
    08:00 -3°C° 0 mm 2 mps 598 mmHg 90%
    09:00 -2°C° 0 mm 2 mps 599 mmHg 86%
    10:00 +1°C° 0 mm 2 mps 599 mmHg 82%
    11:00 +1°C° 0 mm 2 mps 600 mmHg 80%
    12:00 +2°C° 0 mm 2 mps 600 mmHg 78%
    13:00 +3°C° 0 mm 2 mps 600 mmHg 76%
    14:00 +3°C° 0 mm 2 mps 600 mmHg 79%
    15:00 +2°C° 0 mm 2 mps 600 mmHg 81%
    16:00 +2°C° 0 mm 2 mps 599 mmHg 83%
    17:00 +1°C° 0 mm 2 mps 599 mmHg 84%
    18:00 -2°C° 0 mm 2 mps 599 mmHg 86%
    19:00 -3°C° 0 mm 2 mps 599 mmHg 87%
    20:00 -3°C° 0 mm 2 mps 599 mmHg 86%
    21:00 -3°C° 0 mm 2 mps 599 mmHg 85%
    22:00 -3°C° 0 mm 2 mps 599 mmHg 84%
    23:00 -3°C° 0 mm 2 mps 599 mmHg 83%

    Day after tomorrow, 25 October, Wednesday

    Time Temperature Precipitation Wind Pressure Humidity
    00:00 -2°C° 0 mm 2 mps 599 mmHg 82%
    01:00 0°C° 0 mm 1 mps 599 mmHg 81%
    02:00 0°C° 0 mm 1 mps 599 mmHg 81%
    03:00 0°C° 0 mm 1 mps 599 mmHg 80%
    04:00 -2°C° 0 mm 2 mps 599 mmHg 80%
    05:00 +1°C° 0 mm 1 mps 599 mmHg 79%
    06:00 +1°C° 0 mm 1 mps 600 mmHg 79%
    07:00 +1°C° 0 mm 1 mps 600 mmHg 79%
    08:00 +3°C° 0 mm 1 mps 601 mmHg 79%
    09:00 +5°C° 0 mm 1 mps 602 mmHg 79%
    10:00 +7°C° 0 mm 1 mps 603 mmHg 79%
    11:00 +8°C° 0 mm 1 mps 603 mmHg 77%
    12:00 +9°C° 0 mm 1 mps 603 mmHg 75%
    13:00 +10°C° 0 mm 1 mps 604 mmHg 73%
    14:00 +9°C° 0 mm 1 mps 603 mmHg 76%
    15:00 +8°C° 0 mm 1 mps 603 mmHg 80%
    16:00 +7°C° 0 mm 1 mps 602 mmHg 83%
    17:00 +6°C° 0 mm 1 mps 602 mmHg 84%
    18:00 +4°C° 0 mm 1 mps 601 mmHg 84%
    19:00 +3°C° 0 mm 1 mps 601 mmHg 84%
    20:00 +2°C° 0 mm 1 mps 601 mmHg 82%
    21:00 +2°C° 0 mm 1 mps 601 mmHg 79%
    22:00 +2°C° 0 mm 1 mps 601 mmHg 77%
    23:00 +2°C° 0 mm 1 mps 601 mmHg 74%

    26 October, Thursday

    Time Temperature Precipitation Wind Pressure Humidity
    00:00 +2°C° 0 mm 1 mps 601 mmHg 72%
    01:00 +2°C° 0 mm 1 mps 602 mmHg 70%
    02:00 +2°C° 0 mm 1 mps 601 mmHg 68%
    03:00 +3°C° 0 mm 1 mps 601 mmHg 67%
    04:00 +3°C° 0 mm 1 mps 601 mmHg 66%
    05:00 +2°C° 0 mm 1 mps 601 mmHg 65%
    06:00 +2°C° 0 mm 1 mps 601 mmHg 64%
    07:00 +2°C° 0 mm 1 mps 601 mmHg 63%
    08:00 +5°C° 0 mm 1 mps 602 mmHg 62%
    09:00 +7°C° 0 mm 1 mps 603 mmHg 62%
    10:00 +9°C° 0 mm 1 mps 604 mmHg 61%
    11:00 +10°C° 0 mm 1 mps 605 mmHg 59%
    12:00 +11°C° 0 mm 1 mps 605 mmHg 56%
    13:00 +12°C° 0 mm 1 mps 605 mmHg 54%
    14:00 +11°C° 0 mm 1 mps 604 mmHg 60%
    15:00 +10°C° 0 mm 1 mps 604 mmHg 66%
    16:00 +9°C° 0 mm 1 mps 603 mmHg 72%
    17:00 +7°C° 0 mm 1 mps 602 mmHg 74%
    18:00 +5°C° 0 mm 1 mps 602 mmHg 75%
    19:00 +3°C° 0 mm 1 mps 601 mmHg 77%
    20:00 +3°C° 0 mm 1 mps 601 mmHg 75%
    21:00 +3°C° 0 mm 1 mps 601 mmHg 73%
    22:00 +3°C° 0 mm 1 mps 601 mmHg 71%
    23:00 +3°C° 0 mm 1 mps 601 mmHg 70%

    27 October, Friday

    Time Temperature Precipitation Wind Pressure Humidity
    00:00 +3°C° 0 mm 1 mps 600 mmHg 69%
    01:00 +3°C° 0 mm 1 mps 600 mmHg 67%
    02:00 +2°C° 0 mm 2 mps 600 mmHg 67%
    03:00 +2°C° 0 mm 2 mps 600 mmHg 66%
    04:00 +2°C° 0 mm 2 mps 599 mmHg 66%
    05:00 +2°C° 0 mm 2 mps 599 mmHg 67%
    06:00 +2°C° 0 mm 2 mps 599 mmHg 69%
    07:00 +1°C° 0 mm 2 mps 599 mmHg 70%
    08:00 +4°C° 0 mm 2 mps 599 mmHg 67%
    09:00 +7°C° 0 mm 1 mps 600 mmHg 65%
    10:00 +9°C° 0 mm 1 mps 601 mmHg 62%
    11:00 +9°C° 0 mm 2 mps 601 mmHg 61%
    12:00 +9°C° 0 mm 2 mps 600 mmHg 59%
    13:00 +10°C° 0 mm 3 mps 600 mmHg 58%
    14:00 +8°C° 0.1 mm 3 mps 599 mmHg 63%
    15:00 +7°C° 0.1 mm 2 mps 598 mmHg 68%
    16:00 +6°C° 0.1 mm 2 mps 598 mmHg 74%
    17:00 +5°C° 1.1 mm 2 mps 597 mmHg 79%
    18:00 +4°C° 1.1 mm 2 mps 597 mmHg 85%
    19:00 +3°C° 1.1 mm 2 mps 597 mmHg 90%
    20:00 +1°C° 2.5 mm 3 mps 597 mmHg 91%
    21:00 +1°C° 2.5 mm 3 mps 597 mmHg 93%
    22:00 0°C° 2.5 mm 3 mps 597 mmHg 94%
    23:00 -1°C° 0.5 mm 3 mps 597 mmHg 94%

    28 October, Saturday

    Time Temperature Precipitation Wind Pressure Humidity
    00:00 -1°C° 0.5 mm 3 mps 597 mmHg 94%
    01:00 -2°C° 0.5 mm 3 mps 596 mmHg 94%
    02:00 -3°C° 0 mm 2 mps 596 mmHg 94%
    03:00 -4°C° 0 mm 2 mps 596 mmHg 95%
    04:00 -5°C° 0 mm 2 mps 595 mmHg 95%
    05:00 -6°C° 0 mm 2 mps 595 mmHg 94%
    06:00 -6°C° 0 mm 2 mps 595 mmHg 94%
    07:00 -7°C° 0 mm 2 mps 595 mmHg 93%
    08:00 -5°C° 0 mm 2 mps 595 mmHg 86%
    09:00 -4°C° 0 mm 2 mps 596 mmHg 79%
    10:00 -2°C° 0 mm 2 mps 596 mmHg 72%
    11:00 -2°C° 0 mm 2 mps 596 mmHg 68%
    12:00 -1°C° 0 mm 2 mps 596 mmHg 65%
    13:00 -1°C° 0 mm 3 mps 596 mmHg 61%
    14:00 -1°C° 0.3 mm 3 mps 595 mmHg 67%
    15:00 -2°C° 0.3 mm 3 mps 595 mmHg 73%
    16:00 -4°C° 0.3 mm 3 mps 594 mmHg 79%
    17:00 -5°C° 0.6 mm 3 mps 594 mmHg 82%
    18:00 -5°C° 0.6 mm 3 mps 594 mmHg 85%
    19:00 -5°C° 0.6 mm 2 mps 594 mmHg 89%
    20:00 -5°C° 0.4 mm 2 mps 594 mmHg 89%
    21:00 -5°C° 0.4 mm 2 mps 594 mmHg 90%
    22:00 -5°C° 0.4 mm 2 mps 594 mmHg 90%
    23:00 -6°C° 0.2 mm 2 mps 594 mmHg 91%

    29 October, Sunday

    Time Temperature Precipitation Wind Pressure Humidity
    00:00 -6°C° 0.2 mm 2 mps 594 mmHg 91%
    01:00 -6°C° 0.2 mm 2 mps 594 mmHg 91%
    02:00 -6°C° 0.1 mm 2 mps 594 mmHg 91%
    03:00 -6°C° 0.1 mm 2 mps 594 mmHg 91%
    04:00 -6°C° 0.1 mm 2 mps 594 mmHg 91%
    05:00 -6°C° 0 mm 2 mps 594 mmHg 91%
    06:00 -6°C° 0 mm 2 mps 594 mmHg 90%
    07:00 -6°C° 0 mm 2 mps 594 mmHg 90%
    08:00 -5°C° 0 mm 2 mps 594 mmHg 85%
    09:00 -3°C° 0 mm 2 mps 595 mmHg 80%
    10:00 -1°C° 0 mm 2 mps 595 mmHg 75%
    11:00 -1°C° 0 mm 2 mps 595 mmHg 74%
    12:00 +1°C° 0 mm 2 mps 595 mmHg 72%
    13:00 +2°C° 0 mm 2 mps 595 mmHg 71%
    14:00 +2°C° 0 mm 2 mps 595 mmHg 74%
    15:00 +1°C° 0 mm 2 mps 594 mmHg 77%
    16:00 +1°C° 0 mm 2 mps 594 mmHg 80%
    17:00 -2°C° 0 mm 2 mps 593 mmHg 84%
    18:00 -3°C° 0 mm 2 mps 593 mmHg 88%
    19:00 -4°C° 0 mm 2 mps 592 mmHg 92%
    20:00 -4°C° 0.3 mm 2 mps 593 mmHg 91%
    21:00 -3°C° 0.3 mm 2 mps 593 mmHg 90%
    22:00 -3°C° 0.3 mm 2 mps 593 mmHg 89%
    23:00 -3°C° 0.3 mm 2 mps 593 mmHg 90%
    Show more